Wind_Speed
16 16 17 15 15 17 17 18 18 21 26 28 30 33 34 35 36 36 37 38 40 40 41 43 43 43 43 44 44 44 43 42 41 40 39 38 37 36 35 35 35 35 34 33 33 33 33 31 30 30 30 30 29 27 25 23 22 22 21 21 22 23 23
13 15 16 16 16 17 18 18 19 22 26 28 31 33 33 35 36 37 38 39 41 42 42 43 43 44 44 45 45 44 44 42 41 40 39 38 38 37 37 36 36 36 36 35 34 33 32 31 30 30 30 30 29 28 26 24 23 23 23 22 23 24 24
13 15 16 17 17 18 19 18 19 23 27 28 30 31 34 37 39 40 39 38 40 41 41 41 43 44 44 43 43 43 44 43 41 40 39 39 39 38 37 37 37 36 36 35 34 32 31 31 30 30 29 30 30 28 27 25 24 24 24 24 24 25 25
14 16 17 19 19 18 17 17 18 23 28 31 33 35 38 41 42 41 40 40 40 40 41 43 44 44 44 43 42 42 43 42 42 41 41 40 40 38 37 37 37 36 35 34 34 33 32 31 30 30 29 29 29 29 28 26 25 26 26 25 25 25 25
14 15 15 16 16 15 16 17 18 23 28 31 34 36 39 41 40 39 39 40 41 42 44 45 43 43 43 43 42 42 42 43 43 42 41 40 39 38 37 37 37 37 36 34 33 32 32 31 31 30 30 30 30 30 29 28 27 27 27 27 26 25 25
14 14 14 14 15 16 17 18 20 25 30 32 34 36 38 38 37 37 39 40 40 41 42 42 41 41 42 42 42 40 40 41 41 41 40 39 38 37 38 38 38 37 36 34 33 33 32 32 32 31 31 30 30 30 30 29 29 28 28 28 28 27 27
14 14 14 14 15 16 18 18 20 26 32 33 34 35 34 34 36 38 38 38 40 40 39 40 41 42 42 41 40 39 38 39 40 40 40 39 38 38 38 38 38 37 35 34 33 33 33 33 33 32 32 31 31 31 31 31 31 30 29 29 29 29 29
16 15 15 16 17 17 17 17 17 22 28 29 29 30 31 32 34 35 36 38 40 39 40 41 43 43 42 40 40 40 40 39 39 40 40 39 39 39 39 39 38 36 34 33 33 34 34 34 34 33 32 32 32 32 33 33 33 32 31 31 31 31 31
15 14 14 15 15 14 14 15 16 19 23 25 27 29 31 32 33 35 37 39 39 39 41 43 43 43 42 40 41 41 40 39 38 39 40 40 40 40 40 39 37 36 34 34 34 34 34 35 35 34 33 33 33 33 34 34 34 33 33 33 32 32 33
12 12 12 11 10 10 11 13 13 14 16 19 23 27 29 31 33 35 37 38 38 41 44 43 41 41 40 41 41 40 39 39 38 38 40 40 40 39 39 38 37 35 35 34 33 34 34 35 35 35 34 34 34 35 35 35 35 35 35 34 34 34 34
10 10 9 8 8 9 11 12 12 13 13 15 20 26 28 31 34 34 36 37 39 42 43 41 40 39 39 40 39 38 39 39 38 39 40 40 39 39 38 38 36 35 34 34 33 34 34 34 35 35 35 36 36 36 36 36 36 36 36 36 36 35 35
9 9 9 10 10 11 12 13 13 14 13 14 20 25 28 31 33 34 36 38 41 42 40 40 40 39 39 39 39 39 40 40 40 40 40 40 39 38 38 38 37 35 34 34 34 34 34 35 35 36 37 38 38 38 38 37 36 37 37 37 37 36 35
6 7 9 10 10 10 12 12 13 15 14 15 21 26 29 31 33 34 35 37 39 40 38 39 40 39 39 39 39 40 41 41 42 41 40 40 39 38 38 39 39 37 35 34 34 35 35 36 36 37 39 39 39 39 38 37 37 37 38 38 37 37 36
5 7 8 8 9 10 12 13 14 15 15 15 19 25 28 30 32 34 35 36 38 38 38 39 39 39 39 39 39 40 42 43 42 41 41 40 39 39 39 40 39 38 36 35 35 36 36 37 38 39 40 40 40 39 38 37 38 38 38 38 37 37 37
7 8 8 9 10 12 13 14 14 15 15 15 17 21 25 27 30 32 33 34 36 37 39 39 39 40 40 39 40 42 43 42 40 40 40 39 39 39 40 40 40 38 37 36 36 37 37 37 39 40 40 40 39 39 38 38 38 39 40 39 38 37 37
7 7 8 10 11 12 13 14 15 15 15 15 15 18 22 25 28 31 33 34 36 38 40 40 39 39 39 40 42 43 42 40 39 39 39 39 39 40 40 40 39 37 37 38 38 38 38 38 39 40 40 39 38 38 38 38 40 41 41 41 40 38 37
8 9 9 11 12 11 12 13 13 13 14 15 16 20 24 26 29 32 33 34 36 38 39 39 39 39 40 42 43 42 40 39 39 38 39 40 40 39 39 39 38 38 39 39 39 40 40 40 40 41 40 39 38 38 38 40 41 42 42 42 40 39 37
9 10 10 10 11 11 12 13 13 13 15 16 18 22 26 28 29 29 31 33 36 38 37 38 38 39 41 42 41 39 38 38 38 38 39 39 39 38 38 38 39 39 39 40 41 41 41 41 42 41 39 38 38 39 39 41 42 43 42 42 41 40 38
9 10 9 8 8 10 12 13 13 14 16 16 18 24 30 32 30 31 35 38 38 36 35 37 38 39 40 39 37 37 38 37 37 38 38 38 38 37 37 38 39 40 41 41 42 42 41 42 41 40 39 38 39 39 39 41 42 43 43 41 40 40 39
8 9 9 8 7 9 10 11 11 12 14 17 22 28 31 31 32 34 36 36 34 34 36 38 38 39 38 38 38 39 38 37 38 38 38 38 37 37 37 39 40 41 41 42 41 40 40 40 40 39 39 40 39 39 39 41 42 43 42 41 40 39 39
6 7 9 8 7 8 9 9 10 10 12 18 24 26 26 28 30 30 29 30 32 34 37 38 38 38 37 36 37 37 37 37 38 38 37 37 37 37 38 39 40 41 41 40 40 40 40 39 39 39 39 39 39 37 38 41 42 42 41 40 40 38 38
6 7 8 8 8 9 9 9 10 11 13 16 19 21 23 27 29 27 26 30 33 33 34 34 33 33 33 33 35 37 38 38 37 36 35 36 36 36 37 39 40 41 40 39 39 38 38 38 38 38 38 38 37 37 39 40 40 40 40 40 39 38 37
5 7 7 8 8 8 8 9 12 14 14 13 15 18 21 22 24 24 24 27 29 29 29 29 29 31 32 33 35 36 37 37 35 34 34 34 35 36 38 39 40 40 40 38 37 36 36 36 37 37 37 36 37 39 40 39 38 40 40 39 38 37 36
4 5 6 7 7 6 7 7 10 15 16 15 16 21 22 21 22 24 23 23 25 26 27 28 30 32 33 34 36 36 36 36 36 35 36 37 39 40 40 41 41 40 40 39 37 36 36 36 35 35 36 37 39 41 40 38 38 39 39 39 38 37 37
4 4 5 6 6 6 7 7 4 10 14 15 16 19 22 23 24 24 22 23 26 26 27 30 33 35 36 36 36 35 35 36 38 38 39 39 41 41 41 41 41 40 39 39 38 37 36 35 34 33 35 38 40 41 39 37 36 37 37 37 37 37 37
4 5 5 7 9 8 8 8 4 4 5 7 12 17 20 23 24 22 21 23 23 23 27 32 36 37 37 35 34 34 37 39 40 40 41 41 42 41 40 40 38 37 37 37 36 34 33 34 34 33 35 37 38 39 39 37 36 36 37 36 37 37 37
2 3 5 7 11 11 11 12 12 11 10 6 5 15 20 22 21 19 20 20 20 24 31 34 33 33 33 32 32 35 38 40 42 43 44 44 43 41 40 40 38 37 36 35 33 32 32 33 33 33 34 36 37 38 38 38 37 37 37 37 37 37 37
3 5 6 8 12 13 11 12 14 15 16 15 8 7 17 21 19 16 16 17 20 28 31 27 24 26 28 29 31 33 35 38 41 42 42 41 39 38 39 39 38 37 36 34 33 33 33 33 33 33 33 34 36 38 38 39 39 39 39 38 38 37 37
7 8 8 9 12 14 12 10 12 14 16 17 16 10 5 13 15 15 16 18 24 28 25 21 23 25 26 27 29 32 34 37 39 39 38 36 36 37 37 37 38 37 37 36 34 32 32 32 32 32 31 31 33 36 37 38 39 40 41 39 38 37 37
9 9 9 10 11 13 13 11 11 14 17 17 18 18 12 5 4 8 11 14 17 19 20 22 24 24 25 27 30 31 34 35 36 37 36 35 37 37 36 36 37 38 38 38 36 33 31 31 31 31 29 29 30 33 35 36 37 39 40 40 39 37 36
8 8 9 10 11 13 14 12 11 13 16 18 19 18 17 15 10 4 2 6 7 9 16 21 22 23 26 29 30 31 32 33 33 35 36 36 37 37 37 36 35 34 36 37 38 37 35 34 33 32 29 29 30 32 33 33 35 37 38 37 36 35 35
9 9 9 10 13 14 13 13 13 13 14 16 18 17 16 15 14 10 8 7 5 4 10 16 20 23 25 28 29 31 32 31 32 34 35 36 37 38 38 38 36 34 34 33 33 34 34 33 33 32 30 30 30 31 33 34 35 37 36 34 34 35 36
10 11 11 13 14 15 13 12 13 13 13 15 17 17 15 14 14 13 11 9 6 3 3 8 15 20 22 25 28 29 30 31 32 32 34 35 37 37 37 36 36 35 33 32 31 29 28 28 30 31 31 30 28 31 35 37 36 35 35 35 35 36 36
9 10 11 12 14 15 14 13 12 13 13 14 16 16 15 15 16 16 15 13 9 5 3 3 7 13 17 20 23 25 28 31 33 32 32 34 36 36 36 36 35 35 35 36 36 33 29 28 29 29 30 29 29 30 32 31 32 34 37 38 38 38 36
8 9 9 11 13 14 13 12 13 14 14 14 15 16 16 17 18 18 18 17 14 10 6 4 4 6 8 11 14 17 20 25 28 30 31 33 34 36 37 38 38 38 39 42 45 44 41 38 34 29 25 23 24 27 29 28 31 35 38 40 42 41 39
7 7 8 10 12 13 13 12 12 12 12 13 15 16 16 17 18 18 18 17 15 12 8 5 4 4 4 4 5 6 8 11 14 16 19 22 25 29 33 36 39 41 42 44 46 48 49 47 43 39 36 31 29 30 32 35 37 37 37 40 42 42 41
7 8 9 11 11 11 12 12 11 10 10 10 12 13 14 15 16 16 15 15 14 12 9 6 5 4 4 5 5 6 6 6 7 8 9 11 13 16 20 25 31 36 39 41 43 47 49 48 48 50 50 46 42 40 40 40 41 41 41 42 43 41 40
10 11 11 11 11 10 10 10 10 9 9 8 9 10 11 12 12 12 12 12 12 11 10 8 7 6 7 8 7 8 9 9 10 11 11 11 12 13 13 15 20 26 29 32 36 43 47 48 48 51 50 47 47 46 44 42 44 45 43 42 40 38 37
Wind_Direction
200 203 205 205 206 206 208 207 203 204 206 205 205 205 205 205 205 204 204 204 205 207 206 206 206 206 208 209 211 212 212 212 212 213 214 215 217 217 217 218 219 222 224 226 229 231 234 237 237 237 237 238 239 239 239 241 242 240 234 230 228 227 227
196 205 205 203 207 207 209 208 204 205 205 206 205 204 204 205 205 205 205 205 206 208 208 206 207 207 209 210 211 212 212 212 213 213 214 214 216 218 219 220 221 223 226 228 231 232 234 236 237 237 236 236 238 238 238 239 240 237 233 230 228 228 230
199 206 203 203 206 206 207 204 203 205 205 205 204 203 203 205 205 206 206 205 206 208 208 208 208 209 210 210 211 212 213 213 212 213 214 214 215 217 218 220 222 225 227 229 231 232 233 235 236 237 237 236 236 237 236 238 238 235 232 230 229 230 233
205 207 204 206 206 206 205 202 203 205 205 206 204 202 204 205 206 206 206 206 206 207 208 209 210 210 211 211 211 212 213 213 213 213 214 215 216 217 217 219 221 223 226 228 229 231 231 233 235 236 236 235 235 235 236 236 235 234 233 230 230 231 234
212 210 209 208 206 206 204 203 204 204 205 207 205 204 205 206 205 204 206 207 207 209 210 210 210 210 211 211 211 212 213 213 213 214 215 215 216 216 216 218 220 222 224 226 227 228 229 230 232 234 234 232 233 233 234 235 234 233 233 231 231 232 235
214 211 209 206 204 206 205 204 205 204 205 205 204 205 205 204 203 203 205 207 208 210 211 211 211 211 212 212 212 213 213 213 213 214 215 215 215 216 217 219 221 221 222 223 224 226 226 228 230 232 232 230 231 231 232 232 232 231 232 232 232 233 235
216 213 210 207 205 205 204 205 205 204 206 206 204 205 204 201 201 203 205 205 207 209 210 211 212 212 213 213 212 212 212 213 213 213 214 214 215 216 217 219 220 221 222 221 222 224 224 226 228 230 230 229 229 230 231 231 231 230 230 231 233 234 236
217 214 210 208 207 205 203 202 204 204 205 205 203 202 201 200 201 202 203 204 206 207 209 210 211 211 212 212 212 213 212 212 212 213 213 213 214 215 217 219 220 220 220 220 221 223 223 225 226 228 228 228 229 230 231 231 231 230 230 230 233 235 236
222 220 218 214 209 206 201 201 203 202 202 201 200 200 198 198 200 201 203 204 205 206 209 211 211 211 211 211 212 213 212 212 211 211 212 212 213 214 216 218 219 219 219 218 219 221 223 225 225 226 227 227 229 230 230 230 230 230 231 232 233 234 236
227 226 227 220 210 205 202 202 202 200 200 199 199 199 197 197 199 201 203 203 203 207 210 210 210 210 209 210 212 212 211 211 211 211 211 211 213 214 215 217 218 218 218 217 218 219 221 224 224 225 225 226 228 228 228 228 228 229 231 233 234 235 236
227 227 226 214 203 201 199 199 200 199 200 198 197 197 197 198 199 200 201 202 203 208 210 209 208 208 208 209 210 210 211 211 210 210 211 211 212 213 214 215 217 218 217 216 217 218 220 221 221 222 224 225 227 227 227 227 227 228 230 233 234 236 237
222 217 216 207 198 196 197 198 201 200 199 198 196 196 196 198 200 200 201 202 204 207 207 206 207 207 207 208 208 209 211 210 210 210 210 210 211 212 213 214 216 217 217 216 216 217 219 220 220 221 223 225 227 227 226 226 226 228 230 232 233 235 236
227 218 220 212 198 196 196 198 201 201 199 199 197 197 197 198 199 200 201 202 204 206 205 205 206 205 206 207 207 209 210 210 210 210 210 210 210 211 211 213 214 215 215 215 216 217 219 220 221 222 224 225 226 226 226 225 225 227 228 230 231 233 234
240 235 234 221 203 200 198 199 202 201 200 199 198 198 198 199 200 200 201 203 203 203 204 204 203 204 205 206 207 209 211 211 211 210 210 210 210 210 210 211 213 214 213 214 215 216 218 220 222 223 225 225 225 225 224 223 224 226 226 227 228 230 231
237 232 231 221 210 204 200 201 202 200 200 198 196 197 197 198 200 200 201 203 202 202 203 203 202 203 204 205 207 210 211 210 210 209 209 209 209 209 209 210 212 211 211 212 213 216 218 220 222 223 223 224 223 223 222 221 223 226 226 226 226 227 229
252 238 230 226 222 214 207 205 203 200 199 196 194 196 196 197 198 198 200 201 200 202 203 201 201 202 203 205 208 210 210 209 208 208 207 208 208 208 208 209 210 209 210 212 213 215 217 218 221 222 222 222 221 221 220 221 224 227 228 228 227 226 227
250 239 229 224 223 220 215 213 209 201 198 196 196 195 195 197 198 198 200 199 199 201 201 199 200 201 203 207 209 209 208 207 206 206 206 207 207 207 207 207 207 208 210 211 212 214 215 217 219 220 221 221 220 220 219 221 225 228 229 229 228 227 226
245 241 234 226 222 220 217 216 211 203 201 201 198 196 196 197 196 197 199 199 201 201 199 198 200 202 205 208 208 207 206 206 205 205 206 206 206 205 206 206 207 208 209 210 212 213 214 215 218 219 219 219 220 220 220 222 226 228 228 229 228 228 227
253 253 249 237 227 221 220 219 212 208 207 204 199 200 200 196 193 196 199 200 200 197 195 197 201 203 206 207 206 206 206 204 203 204 205 205 205 204 204 204 206 208 209 210 212 213 213 214 216 217 218 218 219 220 221 224 227 228 228 228 228 228 228
267 270 271 259 238 228 227 225 219 214 211 208 206 206 204 199 198 200 201 198 196 194 194 198 201 203 206 205 204 205 204 203 203 204 205 204 203 203 203 204 207 208 210 212 212 212 212 214 215 215 216 218 219 219 221 225 227 228 227 227 228 229 228
278 282 282 274 259 241 229 223 222 219 212 211 210 206 202 202 202 202 199 195 194 195 196 198 200 203 204 204 204 204 202 202 203 203 203 202 202 202 203 205 208 209 211 212 212 212 213 213 214 215 216 217 218 219 222 225 227 227 227 227 228 229 228
300 303 295 290 279 257 235 217 212 214 214 214 211 205 201 203 201 197 194 194 195 197 198 198 200 203 203 203 203 203 202 202 202 201 201 201 201 202 204 206 209 210 211 212 214 214 214 214 215 215 215 216 216 218 222 225 226 226 226 227 228 228 227
298 303 300 295 285 273 261 234 213 210 210 206 202 202 203 203 199 194 192 193 194 196 196 198 201 203 204 204 204 203 203 201 199 199 199 200 201 203 206 208 210 211 211 212 213 214 214 214 215 216 215 215 216 218 222 225 225 226 226 227 227 225 224
300 304 303 301 304 310 309 281 230 211 203 195 195 200 200 196 192 191 191 191 192 193 193 198 203 204 204 206 205 204 202 200 199 199 199 200 202 204 206 209 210 211 211 212 212 213 214 214 215 216 215 215 217 219 221 223 224 225 225 226 225 224 223
314 312 302 313 332 333 325 317 255 206 196 191 194 196 193 190 187 186 189 191 191 192 196 201 204 204 205 206 205 203 201 200 200 201 201 202 205 206 207 208 210 211 212 212 213 213 214 214 214 215 215 216 219 220 221 222 224 224 224 224 225 224 223
315 322 329 344 355 358 1 15 54 142 162 180 192 191 187 186 186 186 191 194 193 197 204 207 207 205 206 205 203 201 200 201 202 203 203 205 206 207 208 209 210 211 212 213 213 213 213 213 213 214 215 216 218 220 221 221 222 223 223 224 224 223 221
306 339 357 4 8 15 28 41 55 62 52 50 174 189 186 183 184 191 193 191 195 206 211 212 210 207 206 204 202 202 202 202 203 205 206 208 207 205 207 208 209 210 210 211 213 212 212 211 212 213 215 216 217 219 220 220 220 221 223 223 224 223 220
47 36 24 22 22 25 35 44 49 49 41 37 52 170 187 184 182 188 188 190 205 214 214 214 212 209 207 205 203 204 204 205 207 208 209 210 207 205 206 207 207 208 209 209 210 210 211 210 210 211 214 215 216 217 219 219 219 220 222 223 222 222 219
44 40 31 28 26 27 34 42 43 41 37 37 44 57 152 184 185 185 186 200 215 218 214 214 213 210 208 206 206 207 208 209 210 210 211 210 208 207 207 205 204 205 206 206 207 208 209 209 209 209 210 212 213 215 216 216 216 219 222 222 221 220 218
38 38 37 33 26 27 35 45 43 38 37 37 40 45 51 72 172 194 201 218 229 223 214 213 212 209 208 209 209 210 211 211 212 212 212 211 208 208 209 207 205 204 203 202 201 203 206 207 207 207 206 206 207 209 211 211 212 217 220 220 218 217 214
46 44 47 44 37 33 38 46 49 46 42 36 34 38 42 44 46 42 306 294 284 244 220 213 209 207 208 210 212 213 213 214 214 214 213 211 209 208 209 208 207 206 204 202 199 199 200 201 203 202 201 200 200 200 201 204 207 212 216 217 216 212 207
46 44 48 48 44 41 45 49 49 50 47 38 35 36 38 42 46 40 17 358 343 267 228 217 211 209 210 211 213 214 213 213 214 215 215 214 211 211 211 209 207 206 207 206 205 204 201 198 196 195 197 199 197 193 192 196 203 207 209 208 208 206 201
39 37 37 38 37 38 45 50 48 48 46 38 34 35 36 39 39 33 25 21 21 3 254 226 218 217 215 214 215 215 213 213 214 215 215 214 213 214 214 212 209 207 206 205 206 208 207 201 195 193 194 194 192 189 189 191 195 199 199 198 198 197 193
44 43 40 38 34 33 37 40 40 43 43 38 33 32 34 35 33 28 25 22 16 6 336 263 234 230 228 225 223 219 215 215 215 215 214 215 215 215 215 213 211 209 208 206 204 202 202 202 202 201 197 192 187 183 181 182 187 191 193 192 189 184 180
49 49 46 44 43 41 42 40 37 36 33 29 29 30 31 32 30 27 25 21 15 8 357 335 295 265 253 246 241 233 227 224 222 220 218 217 216 217 217 215 212 211 212 212 209 205 203 201 200 199 193 186 180 171 163 168 184 192 190 188 185 180 176
50 50 45 46 49 49 48 46 43 41 36 28 29 32 32 32 32 29 25 21 17 13 7 352 333 313 296 292 284 270 259 253 247 243 239 234 229 225 222 219 216 215 215 215 213 210 208 204 198 191 183 176 177 181 184 188 191 190 186 183 182 180 176
57 55 46 44 48 48 46 44 42 41 36 30 34 40 39 36 34 28 22 17 14 12 12 11 7 3 0 0 359 356 349 339 329 318 301 286 276 261 244 231 224 220 219 219 215 210 207 204 198 191 184 180 182 190 198 198 190 183 181 180 178 176 173
59 58 54 49 48 48 45 42 39 37 31 28 38 49 49 42 33 22 16 16 15 15 17 19 21 27 27 20 14 8 5 4 2 358 350 340 329 316 293 265 242 230 226 223 218 211 205 200 194 188 185 187 191 191 189 186 180 176 175 174 173 171 169
Height
699 703 703 705 708 710 711 711 714 718 720 724 727 730 734 737 740 742 744 746 749 751 754 757 760 762 765 767 770 773 775 778 781 784 786 789 791 794 796 798 800 803 805 807 809 812 814 816 818 820 821 823 824 826 828 829 830 831 832 833 834 835 837
696 698 698 700 702 704 705 706 709 713 716 719 722 726 730 732 736 738 739 742 744 747 750 753 756 758 760 763 766 769 771 774 777 780 783 786 788 791 793 795 797 799 801 804 807 809 811 813 815 817 819 821 822 824 826 827 828 829 830 831 832 834 835
690 691 691 693 694 695 698 701 705 707 710 714 717 721 724 726 729 732 735 738 740 743 747 750 752 754 757 760 763 765 768 771 774 777 779 782 784 787 789 792 794 796 799 801 804 806 808 811 813 815 817 819 821 822 823 825 826 827 828 829 830 832 833
684 683 684 685 686 688 692 695 698 701 704 707 710 714 716 719 723 726 731 734 736 739 742 744 747 750 753 756 759 762 764 768 771 773 776 778 781 784 787 789 791 794 796 798 801 803 805 808 810 812 814 816 818 820 821 823 823 825 826 827 829 830 831
679 678 680 682 683 686 687 689 692 694 698 701 704 708 710 714 719 723 727 730 733 735 736 739 743 746 749 752 755 758 761 764 767 770 773 776 779 782 783 786 788 790 793 795 798 800 802 805 807 810 812 814 816 817 819 820 821 823 824 825 826 828 829
673 674 675 676 678 679 680 682 684 686 691 694 698 703 705 710 716 719 723 726 729 732 734 738 741 743 746 748 751 755 758 761 764 767 771 773 776 778 780 782 784 787 790 792 795 797 799 802 804 807 809 811 813 814 816 818 819 820 822 823 824 826 827
666 667 668 669 670 671 673 675 677 681 685 688 693 698 702 707 711 714 718 721 724 728 731 734 736 739 742 745 748 752 755 758 761 764 768 770 773 775 777 779 781 784 787 789 792 794 796 799 801 803 806 808 810 811 813 814 816 818 819 820 822 823 824
658 659 660 661 661 663 666 669 672 676 680 685 690 694 699 703 706 710 714 717 720 723 726 728 730 734 737 741 745 747 750 754 757 761 764 766 769 771 773 776 778 781 784 786 789 791 793 795 797 800 802 805 806 808 809 811 812 815 816 817 819 820 821
653 653 653 654 656 659 662 664 667 671 676 681 685 689 693 697 701 704 707 710 715 718 719 722 725 729 733 737 740 743 747 750 753 756 759 762 764 766 769 772 775 778 781 783 786 788 790 792 794 796 799 801 803 804 805 807 809 811 813 814 815 817 818
652 653 652 653 656 658 660 662 666 670 674 677 680 684 688 692 695 698 702 706 710 711 713 717 721 726 730 733 735 739 743 746 749 752 754 757 760 763 766 769 773 775 777 780 783 785 787 789 791 793 795 797 799 800 801 803 805 807 809 810 812 813 815
652 652 652 654 655 657 659 662 664 667 669 671 675 679 682 686 689 692 696 700 703 705 708 713 718 722 725 728 732 736 739 741 745 747 749 753 756 759 763 767 769 772 775 777 780 782 784 786 788 790 791 792 794 795 797 799 801 803 805 806 808 810 811
651 650 650 651 652 654 656 658 660 662 664 666 669 673 676 680 683 687 690 694 696 699 704 709 713 717 721 724 727 730 733 736 739 741 744 748 752 756 759 763 766 768 771 774 776 779 781 782 784 785 786 787 789 791 792 794 797 798 800 802 804 806 808
649 648 648 647 648 651 652 654 656 657 659 661 664 667 671 674 677 681 685 688 691 695 700 704 708 712 716 719 722 724 727 729 732 736 740 744 747 751 754 757 761 763 766 770 772 775 777 778 780 781 781 782 784 786 788 790 792 794 796 798 800 802 804
649 647 646 646 647 648 649 651 652 653 655 657 659 663 666 669 673 676 679 683 686 691 695 699 703 707 710 714 716 718 720 723 727 731 735 739 743 746 749 752 755 758 761 765 767 769 772 773 775 776 777 778 779 781 783 785 787 789 791 794 796 798 800
647 647 646 646 645 644 645 646 646 648 650 651 655 659 662 665 669 672 676 679 682 686 689 693 698 701 704 708 710 711 714 719 723 727 731 735 738 741 744 747 750 754 757 759 761 764 766 768 770 771 772 773 775 777 779 781 782 784 786 789 791 793 795
645 646 645 644 643 641 640 640 641 642 644 647 650 654 657 661 663 667 670 673 677 680 683 688 692 695 699 701 702 705 710 714 719 723 726 730 733 736 739 743 746 749 752 754 756 758 760 762 764 765 767 768 770 772 774 776 777 779 781 783 786 788 791
641 642 642 640 639 638 638 637 638 640 642 644 645 647 651 654 657 660 664 667 671 674 678 683 686 689 693 694 696 701 706 710 714 718 721 724 728 731 735 739 742 744 746 748 750 751 753 756 758 759 761 764 766 767 769 770 772 774 776 778 781 784 786
636 636 637 636 635 635 635 635 635 637 637 637 638 641 644 647 652 656 659 662 665 668 674 679 681 684 686 687 692 698 702 705 710 713 716 719 723 727 731 734 737 738 740 742 743 745 747 749 751 753 757 760 761 763 764 765 767 769 771 774 776 780 782
634 632 633 634 634 633 631 630 630 630 631 631 633 636 637 641 645 648 650 654 658 664 670 673 676 679 681 684 690 694 697 701 705 708 711 715 719 723 726 729 731 732 734 735 737 739 741 742 745 749 752 754 756 758 759 761 763 764 766 769 772 775 778
636 634 632 632 631 629 628 626 625 625 626 628 630 631 634 638 640 642 645 650 656 661 664 667 670 673 676 680 684 687 692 696 699 702 706 710 715 719 721 724 725 727 729 730 732 734 736 738 741 744 746 749 751 753 755 757 758 759 762 765 768 771 773
637 636 633 630 628 626 624 624 624 623 623 624 626 629 633 636 638 642 646 650 654 657 658 661 664 667 671 675 679 683 687 691 694 698 702 706 710 714 716 718 720 722 724 726 727 729 731 734 737 739 741 744 747 750 751 752 753 755 758 761 764 767 770
637 636 634 630 627 623 620 619 619 620 620 622 625 628 631 633 636 640 644 647 650 653 655 659 662 664 669 672 675 679 682 685 689 694 698 702 706 709 711 713 714 716 719 721 723 725 727 730 732 734 737 740 743 745 746 747 749 751 754 757 760 763 766
636 636 633 630 626 621 617 616 615 616 618 620 623 626 629 632 636 639 642 644 647 650 654 658 660 662 665 668 671 674 678 682 687 691 695 699 702 703 705 707 709 712 715 717 719 721 724 726 728 731 734 737 739 740 741 742 745 747 750 753 757 760 763
634 633 632 629 625 619 616 615 613 614 616 618 620 623 626 630 634 637 640 643 646 649 652 653 655 657 661 663 667 671 675 679 683 686 690 692 694 696 698 701 704 706 709 712 714 716 719 722 725 727 730 732 733 734 736 738 741 743 747 750 754 757 759
633 632 630 627 624 620 617 614 613 613 614 616 618 620 624 627 630 634 637 640 642 645 647 647 648 651 654 658 662 667 672 676 678 680 683 685 686 689 692 695 698 701 705 707 709 712 715 718 721 723 725 727 728 730 733 735 737 740 743 747 750 753 755
633 631 629 625 622 619 617 614 612 613 615 616 617 619 622 626 629 632 634 637 640 642 641 641 642 645 649 654 660 664 667 670 672 675 676 678 680 684 688 691 695 698 701 704 706 709 711 714 716 718 720 722 724 727 729 731 733 736 739 743 746 748 751
633 631 628 626 622 619 617 615 614 615 616 617 618 619 621 624 627 630 632 635 637 637 635 637 641 645 649 653 656 659 661 664 666 668 669 671 674 678 682 686 690 693 696 700 703 706 707 709 711 714 715 717 720 722 724 726 729 731 735 738 741 744 747
633 631 629 627 624 621 619 617 616 617 618 618 619 620 622 623 625 628 631 633 632 631 633 638 643 646 649 651 653 656 659 661 662 663 665 668 671 674 676 679 683 688 691 695 698 701 703 704 706 708 710 712 714 716 718 721 723 726 729 732 735 738 741
631 630 628 626 624 622 621 619 619 620 621 621 621 621 623 624 625 627 629 629 629 631 635 639 642 644 647 649 651 653 655 657 659 661 664 667 669 671 672 674 677 680 684 688 692 695 698 700 701 703 705 707 709 711 713 716 718 721 724 727 730 733 736
630 629 627 627 626 624 623 623 624 624 624 624 624 624 624 625 626 628 629 629 630 633 636 637 640 642 645 646 648 649 651 654 656 658 660 663 665 668 670 671 672 673 675 678 682 687 691 694 696 698 699 701 703 705 708 711 715 718 720 723 725 728 732
632 630 629 629 629 628 627 627 628 628 628 628 628 627 627 627 628 629 631 632 633 634 635 636 638 639 640 642 644 646 649 651 653 655 657 658 660 662 663 666 668 670 670 671 672 675 678 682 687 690 693 695 697 699 703 707 712 715 718 720 723 725 728
631 630 630 630 631 632 631 631 631 631 631 632 631 631 631 630 631 632 633 632 632 633 634 635 636 636 637 639 640 642 645 648 650 651 653 655 656 656 657 659 662 665 667 669 670 669 669 671 675 680 685 688 689 692 696 702 707 710 714 718 721 724 726
630 629 629 629 630 632 632 632 632 633 633 634 634 633 633 633 633 633 633 632 632 632 633 634 635 636 636 637 638 640 642 643 645 646 649 650 651 652 653 655 657 659 661 664 667 669 670 671 671 672 674 678 683 687 690 694 700 705 710 714 718 722 725
633 632 632 631 631 631 631 631 632 633 633 634 634 634 634 633 633 633 632 631 631 631 632 633 634 635 636 636 637 638 638 639 640 642 644 645 646 648 649 650 652 653 654 655 657 660 664 668 669 670 669 672 676 681 686 692 697 701 705 708 712 717 722
636 636 635 635 635 634 633 633 634 633 634 634 634 634 633 632 632 632 631 631 631 631 631 632 633 634 635 636 637 637 637 638 638 639 640 640 641 642 643 644 646 647 647 647 648 650 652 656 661 666 670 674 678 680 684 690 694 697 701 704 708 712 716
640 638 638 638 637 637 637 637 637 637 636 636 635 634 634 634 633 633 633 632 632 632 632 632 633 634 634 635 637 638 638 639 640 641 641 641 641 641 640 640 641 641 640 640 641 642 643 645 649 653 658 666 674 679 681 683 686 691 697 702 706 709 712
642 641 640 640 639 639 639 639 639 639 639 638 637 637 637 637 636 635 635 634 633 633 633 634 634 634 635 636 637 638 639 640 641 642 643 644 644 644 643 642 640 638 637 637 636 637 637 639 641 643 644 651 661 668 672 676 680 685 692 698 702 707 711
644 643 643 642 642 642 642 641 642 641 641 640 639 639 639 639 638 637 636 636 635 635 635 635 636 636 637 638 638 639 639 640 641 642 643 644 645 645 645 645 643 639 637 636 635 635 633 634 637 640 642 649 657 661 663 668 673 679 687 695 701 705 709